{"data":{"norad_id":53548,"intl_designator":"2022-101X","name":"STARLINK-4513","alt_names":[],"object_type":"PAYLOAD","status":"ACTIVE","operator":null,"country":"US","launch_date":"2022-08-19","launch_site_code":"AFETR","launch_vehicle":null,"mission":null,"orbit_class":"UNKNOWN","rcs_meters":null,"size_class":null,"mass_kg":null,"dimensions":null,"purposes":["comms"],"wikipedia_slug":null,"has_3d_model":false,"image_url":null,"decayed_at":null,"tle_current":{"epoch":"2026-05-25T01:15:12.493152Z","epoch_age_seconds":70651,"freshness":"FRESH","line1":"1 53548U 22101X   26145.05222793 -.00000233  00000+0  34379-5 0  9998","line2":"2 53548  53.2132  81.3143 0001593  56.0786 304.0358 15.08840096207837","mean_motion":15.08840096,"eccentricity":0.0001593,"inclination_deg":53.2132,"raan_deg":81.3143,"arg_perigee_deg":56.0786,"mean_anomaly_deg":304.0358,"bstar":3.4379e-6,"rev_number":20783,"period_min":95.437548605548,"perigee_km":538.64107723131,"apogee_km":540.84511382974,"semimajor_km":6917.8800955305,"source":"CELESTRAK","updated_at":"2026-05-25T13:38:17.443904Z"}}}